ICEYE-X41

operational
NORAD ID: 62700 Int'l Des: 2025-009 Owner: ICEUS Country: US
LEOCIRCULARRETROGRADESSO

About ICEYE-X41

Description loading...

Live Position

Loading 3D Globe...

Upcoming Passes

Altitude History

Altitude vs Time

uPlot chart will show altitude changes over time

Two-Line Element Set

1 62700U 25009CV 25311.19487436 .00004896 00000-0 45487-3 0 9993
2 62700 97.7281 29.0212 0002495 67.5691 292.5793 14.94824291 44224
Epoch: Nov 7, 2025 • Age: 12 hours

Current Status

Altitude 593.5 km
Velocity 7.57 km/s
Sub-Earth Point 71.60°N, 74.71°E
Launch Date Jan 14, 2025
Age 0.8 years
Type earth observation

Technical Details

Classification Payload
Mass 80.00 kg
Dry Mass 80.00 kg
Total Mass 80.00 kg
Length 0.80 m
Diameter 0.60 m
Span 1.50 m
Shape Box + pan
Manufacturer ICEYE
Bus Type ICEYE
Phase Status In Orbit
Owner/State ICEUS/US

Large Constellations

Loading constellations...